| time (UTC) | temp C | wind direction | speed KPH | gust KPH | rain 1hr cm | rain 24hr cm | rain mn cm | humidity % | barometer mb |
| 20260504151039 | 17 | 167 | 3.2 | 12.9 | 0.00 | 0.00 | 0.00 | 74 | 1006.5 |
| 20260504150541 | 17 | 192 | 3.2 | 12.9 | 0.00 | 0.00 | 0.00 | 73 | 1006.6 |
| 20260504141039 | 17 | 207 | 6.4 | 14.5 | 0.00 | 0.00 | 0.00 | 70 | 1006.4 |
| 20260504140539 | 17 | 150 | 3.2 | 12.9 | 0.00 | 0.00 | 0.00 | 69 | 1006.9 |
| 20260504130540 | 17 | 200 | 4.8 | 16.1 | 0.00 | 0.00 | 0.00 | 73 | 1007.4 |
| 20260504120109 | 14 | 184 | 6.4 | 22.5 | 0.00 | 0.00 | 0.00 | 76 | 1007.6 |
| 20260504110540 | 13 | 182 | 3.2 | 9.7 | 0.00 | 0.00 | 0.00 | 81 | 1007.6 |
| 20260504100539 | 13 | 209 | 1.6 | 6.4 | 0.00 | 0.00 | 0.00 | 79 | 1008.5 |
| 20260504100114 | 13 | 210 | 1.6 | 4.8 | 0.00 | 0.00 | 0.00 | 79 | 1008.4 |
| 20260504081545 | 12 | 0 | 0.0 | 0.0 | 0.00 | 0.00 | 0.00 | 83 | 1007.9 |
| 20260504081039 | 12 | 0 | 0.0 | 0.0 | 0.00 | 0.00 | 0.00 | 83 | 1008.0 |
| 20260504080539 | 12 | 0 | 0.0 | 0.0 | 0.00 | 0.00 | 0.00 | 83 | 1008.0 |
| 20260504050539 | 14 | 0 | 0.0 | 6.4 | 0.00 | 0.00 | 0.00 | 79 | 1009.8 |
| 20260504045539 | 14 | 256 | 1.6 | 6.4 | 0.00 | 0.00 | 0.00 | 77 | 1009.2 |
| 20260504045038 | 15 | 313 | 1.6 | 4.8 | 0.00 | 0.00 | 0.00 | 76 | 1009.0 |
| 20260504044546 | 15 | 0 | 0.0 | 0.0 | 0.00 | 0.00 | 0.00 | 76 | 1008.9 |
| 20260504044043 | 15 | 0 | 0.0 | 0.0 | 0.00 | 0.00 | 0.00 | 75 | 1008.9 |
| 20260504043539 | 15 | 0 | 0.0 | 0.0 | 0.00 | 0.00 | 0.00 | 72 | 1008.8 |
| 20260504043059 | 15 | 0 | 0.0 | 0.0 | 0.00 | 0.00 | 0.00 | 72 | 1008.7 |
| 20260504042540 | 15 | 0 | 0.0 | 0.0 | 0.00 | 0.00 | 0.00 | 72 | 1008.6 |
| 20260504042040 | 15 | 0 | 0.0 | 0.0 | 0.00 | 0.00 | 0.00 | 72 | 1008.6 |
| 20260504041545 | 15 | 0 | 0.0 | 1.6 | 0.00 | 0.00 | 0.00 | 71 | 1008.7 |
| 20260504041038 | 15 | 0 | 0.0 | 1.6 | 0.00 | 0.00 | 0.00 | 71 | 1008.9 |
| 20260504040539 | 15 | 0 | 0.0 | 9.7 | 0.00 | 0.00 | 0.00 | 71 | 1009.0 |
| 20260504040103 | 15 | 0 | 0.0 | 9.7 | 0.00 | 0.00 | 0.00 | 73 | 1009.1 |
| 20260504035539 | 15 | 252 | 3.2 | 9.7 | 0.00 | 0.00 | 0.00 | 72 | 1009.5 |
| 20260504035042 | 16 | 126 | 1.6 | 6.4 | 0.00 | 0.00 | 0.00 | 71 | 1009.3 |
| 20260504034558 | 16 | 0 | 0.0 | 0.0 | 0.00 | 0.00 | 0.00 | 71 | 1009.7 |
| 20260504034039 | 16 | 0 | 0.0 | 6.4 | 0.00 | 0.00 | 0.00 | 71 | 1009.8 |
| 20260504033543 | 16 | 0 | 0.0 | 6.4 | 0.00 | 0.00 | 0.00 | 71 | 1010.0 |
| 20260504033053 | 16 | 198 | 1.6 | 6.4 | 0.00 | 0.00 | 0.00 | 70 | 1010.1 |
| 20260504032539 | 16 | 0 | 0.0 | 0.0 | 0.00 | 0.00 | 0.00 | 69 | 1009.9 |
| 20260504032043 | 16 | 0 | 0.0 | 0.0 | 0.00 | 0.00 | 0.00 | 70 | 1009.8 |
| 20260504031546 | 16 | 0 | 0.0 | 3.2 | 0.00 | 0.00 | 0.00 | 70 | 1009.8 |
| 20260504031039 | 16 | 0 | 0.0 | 4.8 | 0.00 | 0.00 | 0.00 | 70 | 1009.8 |
| 20260504030539 | 16 | 340 | 1.6 | 4.8 | 0.00 | 0.00 | 0.00 | 71 | 1009.9 |
| 20260504030050 | 16 | 340 | 3.2 | 6.4 | 0.00 | 0.00 | 0.00 | 72 | 1009.8 |
| 20260504025541 | 16 | 0 | 1.6 | 6.4 | 0.00 | 0.00 | 0.00 | 72 | 1009.7 |
| 20260504025039 | 16 | 351 | 3.2 | 6.4 | 0.00 | 0.00 | 0.00 | 71 | 1009.6 |
| 20260504024548 | 16 | 313 | 1.6 | 6.4 | 0.00 | 0.00 | 0.00 | 71 | 1009.5 |
| 20260504024039 | 17 | 315 | 1.6 | 4.8 | 0.00 | 0.00 | 0.00 | 70 | 1009.6 |
| 20260504023540 | 17 | 0 | 0.0 | 0.0 | 0.00 | 0.00 | 0.00 | 69 | 1009.4 |
| 20260504023047 | 17 | 0 | 0.0 | 0.0 | 0.00 | 0.00 | 0.00 | 68 | 1009.4 |
| 20260504022538 | 17 | 0 | 0.0 | 0.0 | 0.00 | 0.00 | 0.00 | 67 | 1009.3 |
| 20260504022040 | 18 | 0 | 0.0 | 0.0 | 0.00 | 0.00 | 0.00 | 63 | 1009.3 |
| 20260504021547 | 18 | 0 | 0.0 | 0.0 | 0.00 | 0.00 | 0.00 | 62 | 1009.2 |
| 20260504021038 | 18 | 0 | 0.0 | 0.0 | 0.00 | 0.00 | 0.00 | 62 | 1009.2 |
| 20260504020539 | 18 | 0 | 0.0 | 0.0 | 0.00 | 0.00 | 0.00 | 62 | 1009.2 |
| 20260504015539 | 19 | 0 | 0.0 | 0.0 | 0.00 | 0.00 | 0.00 | 62 | 1009.2 |
| 20260504015039 | 19 | 0 | 0.0 | 0.0 | 0.00 | 0.00 | 0.00 | 61 | 1009.2 |
| 20260504014551 | 20 | 0 | 0.0 | 0.0 | 0.00 | 0.00 | 0.00 | 59 | 1009.3 |
| 20260504014040 | 20 | 0 | 0.0 | 0.0 | 0.00 | 0.00 | 0.00 | 58 | 1009.2 |
| 20260504013539 | 20 | 0 | 0.0 | 0.0 | 0.00 | 0.00 | 0.00 | 57 | 1009.2 |
| 20260504013050 | 21 | 0 | 0.0 | 0.0 | 0.00 | 0.00 | 0.00 | 55 | 1009.1 |
| 20260504012541 | 21 | 0 | 0.0 | 0.0 | 0.00 | 0.00 | 0.00 | 54 | 1009.2 |
| 20260504012041 | 21 | 0 | 0.0 | 0.0 | 0.00 | 0.00 | 0.00 | 53 | 1009.1 |
| 20260504011548 | 21 | 0 | 0.0 | 0.0 | 0.00 | 0.00 | 0.00 | 51 | 1009.0 |
| 20260504011038 | 22 | 0 | 0.0 | 1.6 | 0.00 | 0.00 | 0.00 | 50 | 1009.1 |
| 20260504010539 | 22 | 0 | 0.0 | 3.2 | 0.00 | 0.00 | 0.00 | 49 | 1009.0 |
| 20260504010047 | 22 | 0 | 0.0 | 3.2 | 0.00 | 0.00 | 0.00 | 49 | 1009.0 |
| 20260504005539 | 22 | 0 | 0.0 | 4.8 | 0.00 | 0.00 | 0.00 | 49 | 1009.0 |
| 20260504005039 | 22 | 0 | 0.0 | 4.8 | 0.00 | 0.00 | 0.00 | 48 | 1009.0 |
| 20260504004546 | 22 | 219 | 0.0 | 4.8 | 0.00 | 0.00 | 0.00 | 48 | 1008.9 |
| 20260504004039 | 22 | 219 | 1.6 | 4.8 | 0.00 | 0.00 | 0.00 | 47 | 1008.9 |
| 20260504003538 | 23 | 207 | 0.0 | 4.8 | 0.00 | 0.00 | 0.00 | 47 | 1008.9 |
| 20260504003047 | 23 | 207 | 1.6 | 8.0 | 0.00 | 0.00 | 0.00 | 47 | 1008.9 |
| 20260504002538 | 23 | 223 | 1.6 | 8.0 | 0.00 | 0.00 | 0.00 | 47 | 1009.0 |
| 20260504002038 | 23 | 228 | 1.6 | 8.0 | 0.00 | 0.00 | 0.00 | 47 | 1008.9 |
| 20260504001550 | 23 | 194 | 1.6 | 6.4 | 0.00 | 0.00 | 0.00 | 48 | 1009.0 |
| 20260504001038 | 23 | 227 | 1.6 | 6.4 | 0.00 | 0.00 | 0.00 | 46 | 1009.0 |
| 20260504000542 | 23 | 0 | 3.2 | 6.4 | 0.00 | 0.00 | 0.00 | 45 | 1009.0 |
| 20260504000057 | 23 | 251 | 1.6 | 6.4 | 0.00 | 0.00 | 0.00 | 45 | 1009.1 |
| 20260503235539 | 23 | 0 | 1.6 | 9.7 | 0.00 | 0.00 | 0.00 | 44 | 1009.2 |
| 20260503235039 | 23 | 263 | 1.6 | 12.9 | 0.00 | 0.00 | 0.00 | 45 | 1009.0 |
| 20260503234545 | 23 | 244 | 4.8 | 12.9 | 0.00 | 0.00 | 0.00 | 44 | 1009.1 |
| 20260503234042 | 23 | 221 | 4.8 | 14.5 | 0.00 | 0.00 | 0.00 | 43 | 1009.1 |
| 20260503233540 | 23 | 223 | 4.8 | 19.3 | 0.00 | 0.00 | 0.00 | 42 | 1009.0 |
| 20260503233046 | 23 | 236 | 4.8 | 19.3 | 0.00 | 0.00 | 0.00 | 42 | 1009.0 |
| 20260503232538 | 23 | 269 | 6.4 | 17.7 | 0.00 | 0.00 | 0.00 | 42 | 1009.0 |
| 20260503232038 | 23 | 223 | 4.8 | 22.5 | 0.00 | 0.00 | 0.00 | 42 | 1009.1 |
| 20260503231550 | 23 | 206 | 4.8 | 22.5 | 0.00 | 0.00 | 0.00 | 41 | 1009.2 |
| 20260503231039 | 23 | 197 | 11.3 | 22.5 | 0.00 | 0.00 | 0.00 | 41 | 1009.1 |
| 20260503230539 | 24 | 241 | 9.7 | 22.5 | 0.00 | 0.00 | 0.00 | 40 | 1009.0 |
| 20260503225539 | 24 | 245 | 4.8 | 16.1 | 0.00 | 0.00 | 0.00 | 40 | 1009.2 |
| 20260503225039 | 24 | 189 | 8.0 | 16.1 | 0.00 | 0.00 | 0.00 | 39 | 1009.2 |
| 20260503224550 | 24 | 233 | 8.0 | 22.5 | 0.00 | 0.00 | 0.00 | 39 | 1009.2 |
| 20260503224038 | 24 | 247 | 8.0 | 22.5 | 0.00 | 0.00 | 0.00 | 40 | 1009.3 |
| 20260503223538 | 24 | 250 | 9.7 | 24.1 | 0.00 | 0.00 | 0.00 | 40 | 1009.3 |
| 20260503223048 | 24 | 207 | 12.9 | 30.6 | 0.00 | 0.00 | 0.00 | 40 | 1009.2 |
| 20260503222537 | 24 | 248 | 11.3 | 30.6 | 0.00 | 0.00 | 0.00 | 38 | 1009.2 |
| 20260503222042 | 24 | 245 | 11.3 | 29.0 | 0.00 | 0.00 | 0.00 | 38 | 1009.2 |
| 20260503221551 | 25 | 255 | 12.9 | 25.7 | 0.00 | 0.00 | 0.00 | 39 | 1009.2 |
| 20260503221039 | 25 | 266 | 9.7 | 25.7 | 0.00 | 0.00 | 0.00 | 39 | 1009.4 |
| 20260503220539 | 24 | 222 | 6.4 | 30.6 | 0.00 | 0.00 | 0.00 | 39 | 1009.4 |
| 20260503220046 | 25 | 217 | 11.3 | 30.6 | 0.00 | 0.00 | 0.00 | 38 | 1009.4 |
| 20260503215538 | 25 | 232 | 11.3 | 30.6 | 0.00 | 0.00 | 0.00 | 37 | 1009.5 |
| 20260503215038 | 25 | 247 | 8.0 | 25.7 | 0.00 | 0.00 | 0.00 | 37 | 1009.6 |
| 20260503214549 | 25 | 242 | 12.9 | 29.0 | 0.00 | 0.00 | 0.00 | 38 | 1009.7 |
| 20260503214039 | 25 | 236 | 8.0 | 29.0 | 0.00 | 0.00 | 0.00 | 37 | 1009.8 |
| 20260503213539 | 25 | 200 | 12.9 | 29.0 | 0.00 | 0.00 | 0.00 | 37 | 1009.7 |
| 20260503213059 | 25 | 247 | 9.7 | 33.8 | 0.00 | 0.00 | 0.00 | 38 | 1009.7 |
| 20260503212538 | 25 | 201 | 14.5 | 33.8 | 0.00 | 0.00 | 0.00 | 37 | 1009.8 |
| 20260503212039 | 25 | 180 | 12.9 | 29.0 | 0.00 | 0.00 | 0.00 | 37 | 1009.9 |
| 20260503211610 | 25 | 225 | 12.9 | 32.2 | 0.00 | 0.00 | 0.00 | 36 | 1009.9 |
| 20260503211039 | 25 | 211 | 16.1 | 32.2 | 0.00 | 0.00 | 0.00 | 36 | 1010.1 |
| 20260503210540 | 25 | 217 | 9.7 | 29.0 | 0.00 | 0.00 | 0.00 | 37 | 1010.0 |
| 20260503210047 | 25 | 360 | 8.0 | 27.4 | 0.00 | 0.00 | 0.00 | 39 | 1010.1 |
| 20260503205539 | 25 | 262 | 8.0 | 27.4 | 0.00 | 0.00 | 0.00 | 39 | 1010.3 |
| 20260503205039 | 25 | 182 | 9.7 | 27.4 | 0.00 | 0.00 | 0.00 | 38 | 1010.4 |
| 20260503204549 | 24 | 340 | 8.0 | 27.4 | 0.00 | 0.00 | 0.00 | 42 | 1010.6 |
| 20260503204039 | 24 | 163 | 9.7 | 35.4 | 0.00 | 0.00 | 0.00 | 40 | 1010.6 |
| 20260503203538 | 24 | 198 | 12.9 | 35.4 | 0.00 | 0.00 | 0.00 | 37 | 1010.7 |
| 20260503203052 | 24 | 165 | 9.7 | 29.0 | 0.00 | 0.00 | 0.00 | 39 | 1010.7 |
| 20260503202536 | 24 | 198 | 8.0 | 25.7 | 0.00 | 0.00 | 0.00 | 39 | 1010.8 |
| 20260503202036 | 24 | 183 | 9.7 | 27.4 | 0.00 | 0.00 | 0.00 | 41 | 1010.8 |
| 20260503201551 | 23 | 107 | 11.3 | 32.2 | 0.00 | 0.00 | 0.00 | 41 | 1010.9 |
| 20260503201041 | 23 | 174 | 11.3 | 32.2 | 0.00 | 0.00 | 0.00 | 39 | 1010.9 |
| 20260503200536 | 23 | 144 | 11.3 | 29.0 | 0.00 | 0.00 | 0.00 | 41 | 1011.0 |
| 20260503200058 | 23 | 225 | 12.9 | 29.0 | 0.00 | 0.00 | 0.00 | 40 | 1011.1 |
| 20260503195536 | 23 | 160 | 6.4 | 27.4 | 0.00 | 0.00 | 0.00 | 40 | 1011.1 |
| 20260503195036 | 23 | 194 | 12.9 | 27.4 | 0.00 | 0.00 | 0.00 | 42 | 1011.1 |
| 20260503194558 | 23 | 200 | 12.9 | 25.7 | 0.00 | 0.00 | 0.00 | 40 | 1011.3 |
| 20260503194039 | 23 | 157 | 8.0 | 32.2 | 0.00 | 0.00 | 0.00 | 42 | 1011.3 |
| 20260503193539 | 23 | 187 | 14.5 | 32.2 | 0.00 | 0.00 | 0.00 | 39 | 1011.5 |
| 20260503193058 | 23 | 178 | 9.7 | 25.7 | 0.00 | 0.00 | 0.00 | 41 | 1011.6 |
| 20260503192541 | 22 | 208 | 8.0 | 37.0 | 0.00 | 0.00 | 0.00 | 39 | 1011.8 |
| 20260503192039 | 22 | 141 | 11.3 | 37.0 | 0.00 | 0.00 | 0.00 | 39 | 1011.8 |
| 20260503191602 | 22 | 117 | 12.9 | 32.2 | 0.00 | 0.00 | 0.00 | 40 | 1011.9 |
| 20260503191038 | 22 | 203 | 12.9 | 32.2 | 0.00 | 0.00 | 0.00 | 39 | 1012.0 |
| 20260503190539 | 22 | 225 | 12.9 | 29.0 | 0.00 | 0.00 | 0.00 | 40 | 1012.2 |
| 20260503190051 | 22 | 192 | 8.0 | 30.6 | 0.00 | 0.00 | 0.00 | 43 | 1012.2 |
| 20260503185538 | 22 | 192 | 8.0 | 30.6 | 0.00 | 0.00 | 0.00 | 41 | 1012.4 |
| 20260503185039 | 22 | 221 | 9.7 | 33.8 | 0.00 | 0.00 | 0.00 | 41 | 1012.6 |
| 20260503184601 | 21 | 156 | 14.5 | 33.8 | 0.00 | 0.00 | 0.00 | 40 | 1012.7 |
| 20260503184039 | 21 | 155 | 12.9 | 32.2 | 0.00 | 0.00 | 0.00 | 40 | 1012.7 |
| 20260503183539 | 21 | 207 | 12.9 | 27.4 | 0.00 | 0.00 | 0.00 | 42 | 1012.8 |
| 20260503183047 | 21 | 169 | 9.7 | 32.2 | 0.00 | 0.00 | 0.00 | 42 | 1013.0 |
| 20260503182540 | 21 | 148 | 11.3 | 32.2 | 0.00 | 0.00 | 0.00 | 45 | 1013.1 |
| 20260503182038 | 21 | 157 | 8.0 | 32.2 | 0.00 | 0.00 | 0.00 | 43 | 1013.1 |
| 20260503181610 | 21 | 253 | 12.9 | 32.2 | 0.00 | 0.00 | 0.00 | 44 | 1013.3 |
| 20260503181039 | 21 | 192 | 4.8 | 30.6 | 0.00 | 0.00 | 0.00 | 46 | 1013.5 |
| 20260503180539 | 21 | 186 | 11.3 | 30.6 | 0.00 | 0.00 | 0.00 | 41 | 1013.6 |
| 20260503180109 | 21 | 161 | 11.3 | 25.7 | 0.00 | 0.00 | 0.00 | 44 | 1013.7 |
| 20260503175539 | 21 | 141 | 8.0 | 25.7 | 0.00 | 0.00 | 0.00 | 43 | 1013.9 |
| 20260503175038 | 20 | 119 | 9.7 | 20.9 | 0.00 | 0.00 | 0.00 | 45 | 1013.9 |
| 20260503174556 | 20 | 236 | 4.8 | 22.5 | 0.00 | 0.00 | 0.00 | 47 | 1014.4 |
| 20260503174038 | 20 | 186 | 11.3 | 25.7 | 0.00 | 0.00 | 0.00 | 44 | 1014.4 |
| 20260503173538 | 20 | 141 | 8.0 | 27.4 | 0.00 | 0.00 | 0.00 | 45 | 1014.7 |
| 20260503173100 | 20 | 189 | 9.7 | 27.4 | 0.00 | 0.00 | 0.00 | 44 | 1014.8 |
| 20260503172537 | 20 | 165 | 6.4 | 24.1 | 0.00 | 0.00 | 0.00 | 45 | 1015.0 |
| 20260503172038 | 19 | 209 | 9.7 | 24.1 | 0.00 | 0.00 | 0.00 | 46 | 1015.2 |
| 20260503171548 | 19 | 215 | 4.8 | 20.9 | 0.00 | 0.00 | 0.00 | 49 | 1015.5 |
| 20260503171039 | 19 | 147 | 6.4 | 22.5 | 0.00 | 0.00 | 0.00 | 46 | 1015.6 |
| 20260503170535 | 18 | 163 | 8.0 | 24.1 | 0.00 | 0.00 | 0.00 | 48 | 1015.8 |